Location: Camp Creek
(33.9000°N, 111.8167°W)
Time: 22:01:38
(UTC-07:00)

DELTA 2 R/B (1) - Visible Passes

Search period start: 23 January 2017 00:00
Search period end: 02 February 2017 00:00
Orbit: 791 x 803 km, 39.6° (Epoch: 23 January)

Date Brightness Start Highest point End Pass type
(mag) Time Alt. Az. Time Alt. Az. Time Alt. Az.
23 Jan 5.8 04:18:45 21° ENE 04:18:45 21° ENE 04:20:29 10° ENE visible
23 Jan 4.0 05:59:32 32° WNW 06:01:40 49° N 06:07:03 10° ENE visible
24 Jan 6.5 03:49:38 10° ENE 03:49:38 10° ENE 03:49:40 10° ENE visible
24 Jan 3.8 05:30:25 49° NNW 05:30:48 50° N 05:36:13 10° ENE visible
25 Jan 4.4 05:01:15 42° NNE 05:01:15 42° NNE 05:05:22 10° ENE visible
25 Jan 4.0 06:42:02 12° WNW 06:46:59 51° N 06:52:24 10° E visible
26 Jan 5.4 04:32:04 26° NE 04:32:04 26° NE 04:34:32 10° ENE visible
26 Jan 4.0 06:12:51 23° WNW 06:16:08 50° N 06:21:32 10° E visible
27 Jan 6.2 04:02:53 14° ENE 04:02:53 14° ENE 04:03:42 10° ENE visible
27 Jan 4.0 05:43:39 37° NW 05:45:17 49° N 05:50:39 10° E visible
28 Jan 4.1 05:14:28 48° N 05:14:28 48° N 05:19:47 10° E visible
28 Jan 3.6 06:55:38 10° WNW 07:01:13 88° NNE 07:06:47 10° ESE visible
29 Jan 4.8 04:45:17 36° NE 04:45:17 36° NE 04:48:55 10° ENE visible
29 Jan 3.6 06:26:03 17° WNW 06:30:23 84° NNE 06:35:57 10° ESE visible
30 Jan 5.8 04:16:07 21° ENE 04:16:07 21° ENE 04:18:03 10° ENE visible
30 Jan 3.6 05:56:54 32° WNW 05:59:34 79° NNE 06:05:07 10° ESE visible
31 Jan 6.5 03:47:00 11° ENE 03:47:00 11° ENE 03:47:11 10° ENE visible
31 Jan 3.5 05:27:47 60° NW 05:28:44 75° NNE 05:34:17 10° ESE visible
01 Feb 3.9 04:58:42 61° ENE 04:58:42 61° ENE 05:03:27 10° ESE visible
01 Feb 4.3 06:39:29 12° W 06:44:11 39° SW 06:49:18 10° SSE visible
